Preview of NWS' New Version of Forecast
This preview is not operational and should not be used for support decisions.

Regional Weather Roundup (RWR)

Issued by National Weather Service (NWS)

                            
000
ASUS43 KBIS 162202
RWRND 

NORTH DAKOTA REGIONAL WEATHER ROUNDUP
NATIONAL WEATHER SERVICE BISMARCK ND
500 PM CDT MON SEP 16 2019

NOTE: "FAIR" INDICATES FEW OR NO CLOUDS BELOW 12,000 FEET WITH NO
SIGNIFICANT WEATHER AND/OR OBSTRUCTIONS TO VISIBILITY.


NDZ001>003-009>011-017-162300-
NORTHWEST NORTH DAKOTA
  
CITY           SKY/WX    TMP DP  RH WIND       PRES   REMARKS
WILLISTON      SUNNY     89  63  41 E15       29.63F HX  90           
MINOT          SUNNY     88  67  49 E8        29.66F HX  91           
MINOT AFB      SUNNY     87  66  49 SE7       29.64F                  
$$
 
NDZ018>021-031>035-040>046-162300-
SOUTHWEST NORTH DAKOTA
  
CITY           SKY/WX    TMP DP  RH WIND       PRES   REMARKS
BISMARCK       MOSUNNY   86  64  47 S16       29.69F                  
DICKINSON      SUNNY     92  54  27 SE17      29.66F HX  90           
GARRISON         N/A     86  66  51 SE10      29.66F                  
HETTINGER ARPT PTSUNNY   88  62  41 SE14      29.71S                  
$$
 
NDZ004>008-012>016-024-026-027-054-162300-
NORTHEAST NORTH DAKOTA
  
CITY           SKY/WX    TMP DP  RH WIND       PRES   REMARKS
GRAND FORKS    MOSUNNY   87  70  56 S13G29    29.72F HX  92           
DEVILS LAKE    SUNNY     85  70  60 S12       29.72S HAZE             
$$
 
NDZ022-023-025-028>030-036>039-047>053-162300-
SOUTHEAST NORTH DAKOTA
  
CITY           SKY/WX    TMP DP  RH WIND       PRES   REMARKS
FARGO          MOSUNNY   87  72  60 SE16G29   29.77S HX  93           
JAMESTOWN      SUNNY     87  70  56 S14G25    29.73F HX  92           
$$